Location: Helsinki
(60.1699°N, 24.9384°E)
Time: 23:16:48
(UTC+03:00)

Vanguard 2 - Visible Passes

Search period start: 02 October 2022 00:00
Search period end: 12 October 2022 00:00
Orbit: 552 x 2935 km, 32.9° (Epoch: 02 October)

Date Brightness Start Highest point End Pass type
(mag) Time Alt. Az. Time Alt. Az. Time Alt. Az.
02 Oct 11.9 20:07:24 10° WSW 20:14:20 14° SW 20:21:18 10° S visible
03 Oct 12.1 20:27:45 10° SW 20:30:30 11° SW 20:33:15 10° SSW visible
06 Oct 12.2 19:06:51 10° SW 19:11:45 12° SSW 19:16:51 10° SSW visible
